• Join FlightAware (Why Join?)
  • Login
  • US Flag GB Flag 
18:57 EDT


 

Airport Tracker/Info


-or-


 

Live Flight TrackerFlight Track Log ✈ SWA36 ✈ 09-May-2013 ✈ KHOU - KDAL

Flight Track Log - Related Links

Times and Time Zones

All times are in EDT time to prevent confusion due to time zone crossing. See the SWA36 flight status page for this flight to view local times or setup timezone preferences in your user account.

Time Position Orientation Groundspeed Altitude Reporting Facility
EDT Latitude Longitude Course Direction KTS MPH feet Rate Location/Type
16:37 29.6356 -95.2675 206° Southwest 144 166 700  Level Houston Center
16:38 29.5875 -95.2950 206° Southwest 217 250 3,600 2,400 Climbing Houston Center
16:39 29.5811 -95.3031 228° Southwest 205 236 4,200 2,100 Climbing Houston Center
16:39 29.5519 -95.3400 228° Southwest 229 264 5,600 2,100 Climbing Houston Center
16:40 29.5483 -95.3628 260° West 236 272 6,400 2,700 Climbing Houston Center
16:41 29.5897 -95.4442 300° West 285 328 9,600 2,460 Climbing Houston Center
16:42 29.6656 -95.5247 317° Northwest 328 377 11,500 2,160 Climbing Houston Center
16:43 29.7425 -95.6053 318° Northwest 363 418 14,100 2,400 Climbing Houston Center
16:44 29.8211 -95.6881 318° Northwest 377 434 16,500 2,280 Climbing Houston Center
16:45 29.9025 -95.7725 318° Northwest 389 448 18,900 1,200 Climbing Houston Center
16:46 29.9842 -95.8572 318° Northwest 395 455 19,000 780 Climbing Houston Center
16:47 30.0517 -95.9536 309° West 391 450 20,600 1,680 Climbing Houston Center
16:48 30.0722 -96.0736 281° West 366 421 22,600 1,440 Climbing Houston Center
16:49 30.0939 -96.2158 280° West 377 434 23,600 1,440 Climbing Houston Center
16:50 30.1119 -96.3292 280° West 364 419 25,600 1,560 Climbing Houston Center
16:51 30.1306 -96.4569 280° West 378 435 26,900 1,380 Climbing Houston Center
16:52 30.1494 -96.5831 280° West 391 450 28,500 1,620 Climbing Houston Center
16:53 30.1686 -96.7047 280° West 384 442 30,300 1,620 Climbing Houston Center
16:54 30.1864 -96.8253 280° West 377 434 31,900 780 Climbing Houston Center
16:55 30.2031 -96.9428 279° West 370 426 32,000  Climbing Houston Center
16:56 30.2217 -97.0600 280° West 367 422 32,000  Level Houston Center
16:57 30.2378 -97.1767 279° West 364 419 32,000  Level Houston Center
16:58 30.2575 -97.3128 280° West 364 419 32,000  Level Houston Center
16:59 30.2756 -97.4344 280° West 375 432 32,000  Level Houston Center
17:00 30.2942 -97.5583 280° West 385 443 32,000  Level Houston Center
17:01 30.3111 -97.6836 279° West 388 447 32,000  Level Houston Center
17:02 30.3297 -97.8083 280° West 387 445 32,000  Level Houston Center
17:04 30.3469 -97.9319 279° West 384 442 32,000  Level Houston Center
17:05 30.3633 -98.0528 279° West 377 434 32,000  Level Houston Center
17:06 30.3833 -98.1722 281° West 375 432 32,000  Level Houston Center
17:07 30.4933 -98.2506 328° Northwest 425 489 32,000  Level Houston Center
17:08 30.6208 -98.2411 North 452 520 32,000  Level Houston Center
17:09 30.7528 -98.2319 North 463 533 32,000  Level Houston Center
17:10 30.8853 -98.2242 North 469 540 32,000  Level Houston Center
17:11 30.9936 -98.2203 North 458 527 32,000  Level Fort Worth Center
17:12 31.1189 -98.2092 North 458 527 32,000 -1,200 Level Fort Worth Center
17:13 31.2464 -98.2031 North 458 527 29,600 -2,340 Descending Fort Worth Center
17:14 31.3611 -98.1942 North 458 527 27,400 -1,740 Descending Fort Worth Center
17:15 31.4700 -98.1367 24° Northeast 434 499 26,200 -1,080 Descending Fort Worth Center
17:16 31.5728 -98.0547 34° Northeast 434 499 25,300 -1,440 Descending Fort Worth Center
17:17 31.6775 -97.9725 34° Northeast 445 512 23,400 -2,400 Descending Fort Worth Center
17:18 31.7864 -97.8825 35° Northeast 445 512 20,500 -2,220 Descending Fort Worth Center
17:19 31.8850 -97.8047 34° Northeast 431 496 19,000 -2,040 Descending Fort Worth Center
17:20 31.9728 -97.7342 34° Northeast 421 484 16,500 -2,760 Descending Fort Worth Center
17:21 32.0753 -97.6489 35° Northeast 416 479 13,600 -2,580 Descending Fort Worth Center
17:22 32.1547 -97.5900 32° Northeast 387 445 11,400 -1,800 Descending Fort Worth Center
17:23 32.2403 -97.5214 34° Northeast 349 402 10,100 -1,260 Descending Fort Worth Center
17:24 32.2969 -97.4700 37° Northeast 303 349 8,900 -1,500 Descending Fort Worth Center
17:25 32.3636 -97.4011 41° Northeast 290 334 7,100 -960 Descending Fort Worth Center
17:26 32.3803 -97.3150 77° East 278 320 7,000 -540 Descending Fort Worth Center
17:27 32.3989 -97.2092 78° East 290 334 6,100 -660 Descending Fort Worth Center
17:28 32.4281 -97.1378 64° Northeast 283 326 5,700 -600 Descending Fort Worth Center
17:29 32.4842 -97.0564 51° Northeast 276 318 5,000 -660 Descending Fort Worth Center
17:30 32.5278 -96.9919 51° Northeast 281 323 4,500 -480 Descending Fort Worth Center
17:31 32.5861 -96.9228 45° Northeast 276 318 4,100 -360 Descending Fort Worth Center
17:31 32.6333 -96.9000 22° Northeast 295 339 4,000 -180 Descending Dallas / Fort Worth TRACON
17:32 32.7167 -96.9000 360° North 270 311 3,900  Descending Dallas / Fort Worth TRACON
17:33 32.7833 -96.9000 360° North 236 272 4,000 60 Climbing Dallas / Fort Worth TRACON
17:34 32.8500 -96.9167 348° North 230 265 4,100 -120 Climbing Dallas / Fort Worth TRACON
17:35 32.9000 -96.9667 320° Northwest 215 247 3,800 -840 Descending Dallas / Fort Worth TRACON
17:36 32.9167 -96.9167 68° East 146 168 2,600 -1,320 Descending Dallas / Fort Worth TRACON
17:37 32.8833 -96.9000 157° South 121 139 1,300 -960 Descending Dallas / Fort Worth TRACON
17:38 32.8667 -96.8667 121° Southeast 134 154 700 -600 Descending Dallas / Fort Worth TRACON
17:40 32.8471 -96.8518 140° Southeast  Level Estimated
17:47 32.8471 -96.8518 140° Southeast  Level Estimated